Location: Arrakis Observatory
(44.1122°N, 95.7153°W)
Time: 14:08:30
(UTC-05:00)

Iridium 35 - Visible Passes

Search period start: 01 September 2014 00:00
Search period end: 11 September 2014 00:00
Orbit: 776 x 779 km, 86.4° (Epoch: 01 September)

Date Brightness Start Highest point End Pass type
(mag) Time Alt. Az. Time Alt. Az. Time Alt. Az.
01 Sep 7.6 03:03:40 11° ESE 03:06:08 15° ENE 03:08:52 10° NE visible
01 Sep 4.9 04:44:10 38° SSW 04:46:11 72° W 04:51:24 10° N visible
02 Sep 5.3 04:11:10 44° SSE 04:12:40 64° E 04:17:50 10° N visible
02 Sep 6.6 05:51:40 13° W 05:53:53 16° WNW 05:57:08 10° NNW visible
03 Sep 6.3 03:38:08 32° ESE 03:39:17 36° E 03:44:00 10° NNE visible
03 Sep 6.0 05:18:38 25° WSW 05:20:02 28° WNW 05:24:31 10° NNW visible
04 Sep 7.1 03:05:05 20° E 03:06:00 21° E 03:09:46 10° NNE visible
04 Sep 5.2 04:45:35 46° WSW 04:46:19 50° W 04:51:24 10° N visible
05 Sep 7.7 02:32:01 11° E 02:32:52 11° ENE 02:34:24 10° ENE visible
05 Sep 4.9 04:12:31 83° S 04:12:44 89° W 04:17:58 10° N visible
05 Sep 6.9 05:53:01 11° W 05:54:15 11° WNW 05:55:55 10° NW visible
06 Sep 5.7 03:39:26 50° E 03:39:26 50° E 03:44:18 10° NNE visible
06 Sep 6.4 05:19:55 20° W 05:20:18 20° WNW 05:24:09 10° NNW visible
07 Sep 6.7 03:06:19 28° ENE 03:06:19 28° ENE 03:10:20 10° NNE visible
07 Sep 5.7 04:46:49 35° WNW 04:46:49 35° WNW 04:51:17 10° NNW visible
08 Sep 7.4 02:33:12 16° ENE 02:33:12 16° ENE 02:35:50 10° NE visible
08 Sep 5.3 04:13:41 55° NW 04:13:41 55° NW 04:18:01 10° N visible
09 Sep 5.7 03:40:33 51° NNE 03:40:33 51° NNE 03:44:30 10° N visible
09 Sep 6.8 05:21:02 14° WNW 05:21:02 14° WNW 05:23:27 10° NW visible
10 Sep 6.6 03:07:23 32° NE 03:07:23 32° NE 03:10:43 10° NNE visible
10 Sep 6.4 04:47:53 23° NW 04:47:53 23° NW 04:51:01 10° NNW visible
